Theta_e
309 310 309 309 309 310 310 312 313 314 315 314 313 312 311 310 310 313 314 313 314 314 316 319 318 325 334 337 342 342 341 345 343 340 340 340 340 343 346 345 344 344 344 345 345 344 342 342 342 342 342 342 341 342 342 342 341 343 343 342 342 342 342 342 342 342 342 342 342 342 342 341 341 340 340 339 339 339 339 339 338 338 338 338 337 337
308 310 310 309 310 310 310 312 313 314 314 313 312 311 311 311 311 313 313 313 314 314 315 318 319 324 331 335 341 342 341 345 345 343 344 346 346 345 341 337 337 339 338 339 340 338 336 336 338 339 341 341 341 342 342 340 342 343 340 338 340 342 342 342 343 343 343 343 342 341 341 340 340 340 339 339 339 339 338 338 338 337 337 337 336 336
308 309 310 310 310 310 310 311 313 314 314 313 312 311 310 311 312 312 313 313 314 313 315 317 318 323 331 335 340 341 341 344 344 344 346 347 346 343 337 333 335 336 335 334 333 332 333 333 334 336 338 340 342 342 339 336 339 341 338 335 335 338 342 343 343 343 343 344 342 341 341 340 339 339 339 338 338 338 338 337 337 336 336 335 335 334
308 309 310 310 309 309 310 311 312 313 313 313 313 310 309 311 311 310 312 314 314 314 316 316 317 324 331 335 339 341 339 342 343 344 346 346 344 342 338 336 336 336 335 334 332 332 334 333 335 335 334 337 341 340 336 336 339 340 339 338 334 335 342 344 343 344 344 342 341 340 340 339 338 338 338 337 337 337 337 336 335 335 334 334 333 333
308 309 310 309 309 309 309 310 311 312 312 313 313 311 310 312 312 310 312 314 313 314 317 315 318 325 332 334 338 341 341 341 342 344 345 344 343 342 339 337 336 334 334 334 333 334 334 333 335 334 333 336 338 335 334 337 339 340 340 339 337 338 343 344 343 343 342 341 340 339 338 339 339 338 338 337 337 336 336 335 334 333 333 333 332 332
309 310 311 309 308 309 309 309 310 311 311 312 314 313 313 313 312 312 313 313 310 311 315 316 316 320 327 330 333 339 342 342 342 344 344 343 342 341 340 339 336 334 333 334 334 334 334 332 333 333 335 338 337 335 336 338 339 340 340 340 340 341 342 343 343 342 340 339 339 338 338 339 339 339 338 337 337 336 335 334 333 333 332 331 331 330
310 311 310 309 308 308 308 308 309 310 309 310 313 313 313 313 312 312 312 311 309 309 314 316 313 315 322 327 329 336 341 342 342 343 343 343 341 340 340 339 336 335 335 334 333 334 334 333 334 335 337 339 338 334 335 338 339 339 340 340 341 341 341 342 342 341 339 339 339 338 338 338 338 338 337 336 335 335 334 333 333 332 330 329 329 329
312 311 310 309 309 308 308 308 309 310 309 309 312 313 313 312 312 312 311 310 311 312 313 314 312 313 318 324 328 330 335 339 341 341 341 342 340 338 339 340 338 336 336 335 335 335 336 337 337 338 337 337 337 336 336 338 338 338 341 341 340 340 340 341 340 339 339 339 339 338 338 338 337 337 336 335 334 334 334 333 332 331 329 328 328 328
312 311 310 309 309 308 308 309 309 309 309 310 312 313 313 313 312 312 311 310 312 312 310 311 312 311 313 320 327 329 329 333 337 339 340 340 339 337 337 339 339 337 337 336 336 336 338 339 339 337 336 336 337 338 339 339 339 339 341 341 341 339 339 340 339 339 339 339 338 338 337 337 336 335 335 334 334 333 333 332 330 329 329 328 328 328
312 311 310 309 310 309 309 310 310 309 310 311 312 313 313 314 313 313 312 310 311 312 310 310 311 309 310 317 326 331 329 328 332 336 339 339 338 337 337 338 338 338 338 337 336 338 340 339 338 337 336 336 337 338 339 339 340 340 340 340 340 339 338 339 338 338 338 338 337 337 336 336 335 334 334 333 333 332 331 330 329 328 328 328 328 328
312 311 311 310 310 310 310 311 310 309 310 311 311 311 312 313 313 313 313 311 311 312 310 310 311 309 310 314 322 328 328 328 327 330 336 339 338 337 337 338 338 337 337 337 336 338 340 338 337 337 336 336 336 338 339 339 339 339 340 339 339 338 338 338 337 337 337 336 336 336 335 334 334 333 333 332 331 330 329 329 328 328 327 328 327 327
311 312 311 311 311 311 311 311 310 310 310 311 310 310 311 312 313 312 312 312 312 312 310 310 311 309 308 312 319 324 326 327 326 326 333 339 338 337 337 337 337 336 336 337 336 337 338 337 337 336 336 336 337 338 339 338 338 338 338 338 338 337 336 336 336 336 335 335 334 334 333 332 332 331 331 330 329 329 329 328 327 327 327 327 327 326
311 311 311 311 311 311 311 310 310 310 310 310 309 309 310 311 313 313 312 312 312 311 310 310 311 309 309 313 319 324 324 324 324 323 329 338 339 338 337 336 337 337 336 337 338 337 338 337 337 336 336 337 337 338 338 338 338 338 337 337 337 336 336 335 335 334 334 333 332 332 332 331 330 329 329 329 328 328 327 326 326 326 326 326 326 326
310 311 311 311 311 311 311 310 309 309 310 310 308 308 309 311 315 316 313 313 312 311 311 311 311 310 309 312 317 322 325 325 327 327 329 335 338 338 338 336 336 337 337 338 338 337 337 337 337 336 336 336 337 337 337 337 337 336 336 336 335 335 335 334 333 332 332 331 331 330 330 329 329 329 328 328 327 326 326 325 325 326 325 325 325 325
310 311 311 311 311 311 311 310 310 310 309 309 309 310 309 309 313 315 312 312 312 311 311 311 311 309 309 316 324 328 330 332 333 334 335 336 338 339 338 337 337 337 337 338 338 337 337 336 336 336 336 336 336 336 336 336 336 335 335 335 335 334 334 332 332 331 330 329 329 329 329 329 328 328 327 326 325 325 324 324 324 324 323 324 324 324
310 311 310 310 311 310 310 310 311 311 309 310 311 310 309 310 311 312 313 313 312 311 313 312 311 311 316 325 332 332 331 332 332 333 335 336 338 339 339 338 338 337 337 338 338 337 336 335 335 335 335 335 336 335 335 335 335 334 334 334 334 333 332 331 331 330 329 328 328 328 327 327 327 326 326 324 323 323 323 323 323 323 322 322 322 323
310 310 309 310 311 310 310 311 311 311 310 310 309 309 310 312 312 311 313 314 311 312 314 312 311 313 317 322 330 333 331 331 330 330 333 336 338 339 339 339 339 338 338 338 337 335 334 334 334 334 334 334 335 335 335 335 334 334 333 333 332 331 330 330 329 328 328 327 327 326 326 325 325 324 323 323 323 322 322 322 322 321 321 321 321 321
311 311 310 309 310 310 310 311 311 311 311 310 309 310 311 312 313 312 311 312 312 312 314 313 312 312 311 318 332 334 331 332 331 330 335 337 338 339 340 340 339 339 338 336 334 332 332 332 332 333 333 333 334 334 334 334 333 332 332 332 331 330 329 328 328 327 326 326 325 324 324 323 323 322 322 322 322 321 321 321 320 320 320 320 320 320
311 310 310 310 310 310 310 311 310 310 311 311 310 311 312 311 311 311 311 312 313 312 314 315 313 310 310 318 331 331 329 334 334 333 337 338 338 339 340 340 339 338 336 334 333 331 331 331 332 332 332 333 333 333 333 332 331 331 331 330 329 328 328 327 326 325 325 324 324 323 322 322 321 321 321 321 321 320 320 320 319 319 320 319 319 319
311 311 310 310 310 310 310 310 310 309 310 311 311 311 311 311 310 310 311 312 312 311 313 315 314 312 311 318 326 326 327 334 336 336 338 338 339 340 340 339 339 338 335 334 333 331 331 332 332 331 331 332 331 331 331 331 330 330 329 329 328 327 326 325 324 324 323 323 322 321 321 320 320 320 320 320 320 319 319 318 318 318 318 317 317 318
311 312 311 309 310 310 310 310 310 310 310 310 310 310 310 311 311 311 310 309 310 310 311 316 317 314 314 320 324 325 328 334 337 338 338 339 340 340 339 339 338 337 335 333 332 332 332 332 331 330 331 330 330 329 329 329 329 329 328 327 326 325 325 324 323 323 322 321 321 320 320 319 319 319 319 319 319 318 318 317 317 317 317 316 316 316
311 312 311 309 310 310 310 310 310 311 311 310 310 311 310 311 311 311 311 310 310 310 310 314 315 314 321 330 329 329 334 337 337 337 338 339 340 339 339 338 337 336 334 334 332 332 332 331 331 330 329 328 328 327 327 327 328 327 327 326 325 324 324 323 322 321 320 320 319 319 318 318 318 318 318 318 318 317 316 316 316 316 316 316 315 315
311 311 311 310 310 310 311 311 311 311 311 310 310 311 311 311 310 309 311 311 310 311 313 313 312 316 330 337 333 335 338 336 336 337 338 339 339 340 339 337 336 335 334 334 333 332 332 331 330 329 328 328 327 326 326 327 327 326 325 325 324 323 322 321 321 320 319 319 318 317 317 317 317 317 317 317 317 316 316 315 315 315 315 315 315 315
311 311 311 311 309 309 311 311 311 312 311 310 310 311 311 312 311 310 311 311 310 310 313 313 311 318 334 337 333 336 337 337 337 336 338 339 339 339 339 337 337 335 334 332 331 331 332 330 329 328 328 327 326 326 326 326 326 325 324 323 323 322 321 320 319 318 318 317 316 316 316 316 316 316 316 316 315 315 315 314 315 315 314 314 314 314
310 310 311 311 310 311 312 311 311 311 311 310 311 311 312 312 312 312 312 312 311 309 311 312 309 318 335 337 333 335 336 336 336 335 337 339 339 338 337 337 336 334 333 331 329 330 330 329 329 328 327 327 326 326 326 325 325 324 323 322 321 320 319 318 318 317 316 316 315 315 315 315 315 315 315 314 314 314 314 314 314 314 313 313 313 314
309 311 311 312 312 312 312 311 311 311 310 311 311 311 312 311 311 313 312 311 311 309 309 310 309 321 336 337 333 335 336 335 336 336 337 338 337 336 335 335 335 334 332 331 330 329 329 328 328 328 327 326 325 325 325 324 323 322 322 321 320 319 318 317 316 316 315 315 315 315 315 314 314 314 314 313 313 313 313 313 313 312 312 312 313 313
310 312 312 312 311 310 311 311 311 311 311 311 311 310 311 312 312 313 311 310 310 309 310 310 311 320 331 335 335 336 336 335 336 337 337 337 335 334 333 333 334 333 332 331 330 329 329 329 328 327 327 326 325 325 324 323 322 321 321 320 319 318 317 316 315 315 314 314 314 314 314 313 313 313 313 312 312 312 312 312 312 311 311 311 312 313
311 312 313 314 314 313 313 313 312 312 311 311 311 312 311 311 313 313 311 311 311 311 311 313 313 315 323 334 336 335 335 335 335 336 337 336 334 333 332 331 332 333 331 330 329 329 329 328 328 327 326 326 325 324 323 322 321 321 320 319 318 317 316 315 314 314 314 314 313 313 312 312 312 312 312 312 311 311 311 311 311 310 310 311 311 312
311 311 313 316 317 317 317 316 313 311 311 311 312 313 312 311 313 313 313 313 314 313 311 313 316 315 318 328 334 334 335 335 335 336 336 334 332 331 330 329 329 329 328 328 328 327 326 325 326 326 326 325 324 323 322 322 321 320 319 318 317 315 314 314 313 313 313 313 312 311 311 312 312 312 312 311 311 311 310 310 310 310 311 311 311 311
311 311 314 315 317 319 320 319 317 313 312 312 312 312 313 312 313 314 314 315 316 315 314 316 319 317 318 326 333 335 335 334 334 334 334 332 330 328 328 328 327 325 326 327 328 327 325 325 325 325 324 324 323 322 321 320 319 319 318 317 316 314 314 313 313 313 312 312 311 311 312 312 312 312 311 311 311 311 310 310 310 310 311 311 310 310
312 312 314 315 316 320 322 322 320 316 313 313 312 312 313 313 313 314 315 316 316 315 316 319 318 317 325 333 335 335 334 333 333 332 332 332 329 327 328 328 326 325 326 327 327 327 326 324 324 324 323 322 321 320 319 319 318 317 316 315 314 313 313 313 312 312 312 312 311 312 312 313 312 312 311 311 311 310 311 311 311 310 310 310 309 309
312 311 314 314 314 318 320 321 321 320 317 315 313 313 314 314 314 315 314 316 318 316 317 318 315 317 328 335 334 334 333 333 333 332 332 331 329 328 327 327 327 326 326 327 327 327 325 323 322 322 321 321 320 319 318 318 317 316 315 314 314 313 313 312 312 311 311 310 311 312 312 312 312 312 311 311 311 311 311 311 310 309 309 309 309 308
310 310 313 312 312 317 319 320 322 322 318 316 316 318 317 315 315 316 317 321 321 317 316 316 315 322 332 333 333 333 333 332 332 332 331 330 329 328 327 326 326 326 325 326 326 325 323 322 321 320 320 320 319 319 319 318 317 316 315 314 313 313 312 312 311 311 310 309 310 312 312 312 312 311 311 311 311 311 310 309 308 308 308 308 308 308
311 311 312 311 311 316 320 320 321 320 318 319 322 324 324 322 321 319 320 322 320 318 321 323 324 330 334 332 332 333 332 332 331 331 331 329 328 328 326 325 325 325 324 323 323 323 323 323 322 321 320 320 319 319 318 318 317 316 314 313 313 312 312 312 311 310 310 310 310 311 311 311 312 311 311 311 310 309 308 308 308 308 307 307 307 307
312 311 312 312 311 314 318 320 319 318 319 322 323 323 323 325 325 325 326 325 322 323 327 326 327 331 333 331 332 332 331 331 330 330 330 329 327 327 326 325 324 324 323 323 323 323 323 323 323 321 320 320 319 318 318 317 316 315 313 313 312 312 312 312 311 310 310 310 310 310 310 311 311 311 311 310 309 308 308 307 307 307 306 306 306 306
312 312 312 312 312 314 317 318 318 319 322 324 325 322 321 322 324 323 323 324 323 325 326 324 326 331 333 332 331 331 330 329 329 330 329 328 327 327 325 325 324 323 323 323 323 323 323 323 322 321 320 319 319 318 317 316 315 314 313 312 312 312 312 312 311 310 310 310 310 310 310 310 310 309 309 308 308 307 307 306 306 306 305 305 305 305
312 312 312 313 314 315 316 315 317 321 323 326 328 325 322 323 323 320 318 319 322 324 324 325 327 331 333 332 330 330 329 329 331 331 329 328 328 327 326 325 325 324 324 324 324 323 323 322 321 320 319 318 318 317 316 316 315 314 313 312 311 310 310 310 309 309 310 310 310 309 310 309 309 308 308 308 307 307 306 306 305 305 305 304 304 304
312 312 312 313 314 314 314 315 317 318 320 325 328 327 325 325 326 325 320 319 324 325 325 326 328 331 333 331 329 329 328 330 332 330 328 328 328 327 327 327 327 326 324 323 323 322 321 321 320 319 318 318 317 317 316 315 314 313 312 311 310 310 309 308 307 308 309 309 309 309 308 308 308 307 307 307 306 306 305 305 305 304 304 304 304 303
314 313 312 313 313 313 313 315 316 317 319 323 326 327 326 324 326 326 319 318 325 327 324 326 329 330 331 330 328 328 329 330 332 330 327 327 328 327 327 327 326 325 323 322 322 322 320 320 319 318 318 318 317 316 316 315 314 312 311 310 310 310 309 307 306 307 307 308 307 307 307 307 307 307 306 305 305 305 305 304 304 304 303 303 303 303
313 313 312 312 313 313 314 314 314 315 319 323 325 325 324 323 325 324 317 318 327 328 324 326 329 330 330 329 327 328 329 330 331 330 327 326 327 328 327 326 325 324 323 322 321 320 319 319 318 318 318 317 317 316 315 314 313 311 310 309 308 308 307 306 305 306 306 306 306 306 306 306 306 305 305 305 304 304 304 304 303 303 303 302 302 302
313 312 312 312 313 313 314 314 313 315 319 322 323 323 323 323 323 320 316 320 326 327 325 327 329 329 329 327 327 328 329 327 328 328 326 326 326 326 326 326 324 322 321 321 319 319 319 318 318 318 317 316 316 315 314 314 312 310 309 309 307 306 305 305 305 305 305 306 306 305 305 305 305 305 304 304 304 303 303 303 303 303 302 302 302 302
313 312 312 313 313 313 313 314 313 314 318 321 323 323 323 323 321 320 320 321 323 326 327 327 328 329 328 327 327 328 327 325 324 326 326 326 325 324 323 323 322 320 319 318 318 318 318 318 317 317 315 315 315 315 314 313 311 309 308 307 306 305 305 305 304 304 304 305 305 304 305 304 304 304 303 303 303 303 303 303 302 302 302 302 302 302
313 313 312 312 313 313 312 313 313 314 318 322 323 322 322 323 321 321 323 323 322 325 327 327 328 328 327 326 326 326 325 324 324 324 325 324 323 322 322 322 321 320 318 317 317 317 317 317 315 314 314 314 314 314 313 311 310 308 307 306 304 304 304 304 304 304 304 304 304 304 304 304 303 303 303 303 303 302 302 302 302 301 301 302 302 302
316 314 312 312 314 313 312 314 316 318 320 323 322 322 322 322 320 320 323 325 324 325 326 326 327 327 326 325 325 324 324 323 323 323 324 323 322 322 321 321 320 318 317 317 317 317 316 314 313 313 313 313 313 312 311 310 308 307 305 304 304 304 304 304 304 304 304 304 304 304 303 303 303 303 303 302 302 302 301 301 301 301 301 301 301 301
318 318 317 316 317 316 316 317 318 318 319 320 320 321 321 320 319 319 322 324 325 325 325 326 326 326 325 325 324 323 323 323 322 322 322 322 321 321 320 319 318 317 317 316 316 315 314 313 312 311 311 312 312 311 310 309 307 305 304 304 304 304 304 303 304 304 304 304 303 303 302 302 302 302 302 302 301 301 301 301 301 300 300 300 300 301
316 317 319 319 318 318 319 319 319 318 318 319 318 318 319 319 319 319 320 322 324 324 324 325 325 325 324 323 323 323 322 322 321 321 321 320 320 319 319 318 316 316 315 314 313 313 313 312 311 310 310 310 310 310 309 308 307 305 304 304 304 304 303 303 303 303 303 303 303 302 302 302 302 302 302 301 301 300 300 300 300 300 300 300 300 300
316 316 319 321 318 317 318 320 320 319 319 319 319 319 319 319 319 319 320 321 322 322 324 324 324 324 323 322 322 322 321 321 321 321 320 320 318 317 317 316 315 315 314 312 311 311 311 310 310 309 310 310 310 310 309 307 306 304 303 303 303 303 302 303 303 302 302 302 301 301 301 301 301 301 301 301 300 300 300 300 300 300 300 300 300 300
318 316 318 320 319 318 319 320 319 318 318 318 318 319 320 320 319 319 319 319 320 321 322 323 323 323 322 322 322 321 321 321 321 320 319 319 317 316 316 316 315 314 313 311 310 309 310 309 309 309 309 309 309 308 307 305 304 303 302 302 302 302 301 301 301 301 301 301 301 301 301 300 300 300 300 300 300 300 300 300 300 300 300 300 300 300
317 316 318 319 320 319 320 319 319 319 320 319 318 319 319 318 318 318 318 319 320 321 321 321 322 321 321 321 321 321 320 320 320 319 318 318 316 315 316 316 314 313 311 310 310 310 310 310 309 308 308 307 306 306 305 304 304 303 302 301 301 301 300 300 300 301 301 300 300 300 300 300 300 300 300 300 300 300 299 299 299 299 299 299 299 299
317 318 318 317 317 318 319 320 320 320 322 321 319 319 318 317 317 319 319 319 320 321 321 321 321 320 320 321 321 320 319 319 319 319 317 316 316 315 316 315 313 311 311 310 311 311 310 309 308 307 306 306 305 305 304 304 304 303 301 301 301 300 299 299 300 300 300 300 300 300 299 299 300 300 300 300 299 299 298 297 297 297 296 296 296 296
317 320 319 318 319 319 318 319 319 320 321 320 318 317 316 315 317 318 319 319 320 320 320 320 320 320 319 320 321 320 318 317 319 319 317 315 315 315 315 314 313 312 311 311 311 310 309 307 306 306 305 305 305 305 304 303 303 302 302 301 302 301 300 300 300 300 300 300 300 299 299 299 300 299 299 299 298 297 297 296 295 294 294 293 293 293
Wind_Speed
11 9 11 12 13 15 16 16 12 6 6 10 11 11 9 9 9 7 7 5 6 10 12 14 12 10 9 10 11 11 12 11 11 10 9 12 11 8 8 6 5 6 7 10 13 11 10 11 14 18 19 18 17 18 18 17 16 15 14 14 15 14 14 13 12 11 10 9 9 8 8 8 8 6 6 5 4 4 4 3 2 1 2 3 3 3
12 11 13 15 14 16 17 17 13 7 7 9 8 9 8 7 7 8 6 4 5 8 10 11 10 11 10 10 11 11 12 12 11 12 11 13 13 10 9 7 3 3 6 6 7 10 13 11 6 11 16 17 18 18 17 16 14 14 13 13 13 13 13 12 11 10 8 7 6 7 8 7 7 6 6 6 5 4 4 4 3 3 3 3 3 3
12 12 15 18 15 15 16 16 13 9 9 8 7 8 8 7 7 8 5 4 6 7 8 12 10 10 11 9 11 10 10 10 10 10 9 11 11 9 11 10 7 6 7 8 10 13 13 8 4 8 9 11 15 17 16 15 14 13 14 13 11 12 12 11 10 9 8 7 6 8 8 7 7 6 6 6 5 4 5 5 3 3 3 3 3 3
10 11 15 16 15 16 15 15 14 10 9 7 7 7 7 9 7 6 7 5 6 4 5 14 11 7 10 8 9 9 7 8 8 7 7 9 9 9 10 9 8 9 9 10 10 9 8 3 2 6 8 8 9 14 15 14 13 13 14 13 11 11 11 11 10 9 9 9 9 10 9 8 8 7 7 7 6 5 5 5 3 3 3 3 3 3
11 12 14 14 14 16 15 14 14 11 9 9 9 8 7 11 6 2 7 8 6 3 5 12 10 6 9 10 9 8 7 8 7 7 7 8 8 9 10 9 8 9 10 12 12 11 9 5 3 0 8 10 8 11 13 13 12 11 13 14 12 11 10 10 11 11 11 11 10 10 9 8 9 8 7 7 6 5 5 4 3 3 3 3 3 4
12 12 15 16 16 17 15 14 15 12 9 9 11 10 5 9 7 5 9 9 7 7 8 10 9 7 10 12 12 10 8 9 9 9 9 9 10 9 9 10 10 10 11 12 12 12 13 11 6 3 7 9 9 10 12 12 12 12 13 14 13 12 12 12 12 11 11 11 10 9 9 9 8 8 7 5 5 5 4 4 3 2 2 3 3 3
9 13 16 17 17 18 16 13 16 15 9 8 11 12 5 5 7 6 8 9 6 6 7 8 8 7 9 11 13 12 12 12 11 11 11 10 10 10 10 11 12 12 11 11 12 14 14 15 15 10 7 8 9 9 10 10 11 12 13 14 13 12 13 13 12 11 10 10 9 9 7 7 7 7 5 4 4 3 3 3 2 2 2 2 3 3
10 15 17 18 17 17 14 12 16 17 11 6 11 15 9 5 7 6 6 8 3 3 6 8 9 5 7 11 13 14 13 14 13 12 12 12 11 12 12 12 13 14 13 12 12 15 16 17 17 13 8 8 9 9 10 9 10 11 13 13 12 12 12 12 12 11 10 9 9 8 7 7 6 5 5 4 4 3 2 3 3 2 2 3 3 4
11 16 17 18 16 13 12 12 15 17 12 4 10 15 12 8 8 6 7 7 2 2 6 10 10 7 6 10 13 14 14 14 15 14 14 14 14 13 12 13 14 14 13 12 12 14 17 19 18 15 11 10 9 10 11 11 11 12 13 13 11 11 11 12 11 10 10 9 9 8 8 7 6 4 4 4 3 3 2 3 3 2 3 3 4 4
9 14 15 16 14 11 13 13 14 17 11 5 9 12 11 9 8 6 7 6 4 5 8 11 12 10 6 10 11 11 13 14 13 13 15 15 15 14 13 13 14 14 12 11 11 13 17 18 18 16 13 11 10 10 12 13 13 14 15 14 12 11 11 11 11 10 10 10 9 9 7 6 5 4 3 3 3 2 2 2 3 3 4 4 4 4
9 13 13 13 12 11 13 12 14 18 12 7 9 10 10 9 8 5 6 5 5 7 10 10 13 12 8 9 11 11 13 15 14 12 13 14 15 15 14 13 13 13 11 10 11 13 16 18 17 17 14 11 11 11 12 13 14 15 15 14 13 12 12 12 11 11 11 10 9 8 7 5 4 3 3 3 3 2 3 3 3 4 4 5 5 5
11 13 11 10 10 11 12 11 13 16 12 9 9 9 9 8 7 6 6 6 6 8 11 12 12 12 10 7 10 13 16 17 16 14 14 17 17 16 14 14 13 13 12 12 11 12 15 16 17 17 15 13 12 13 13 13 15 16 15 16 15 13 13 12 12 11 11 9 8 6 6 5 4 4 4 4 4 3 4 4 4 4 4 5 5 6
11 12 11 10 9 11 12 11 11 12 11 10 10 10 10 8 7 8 8 8 8 5 6 10 11 10 9 6 7 13 17 17 16 14 14 17 18 16 15 15 13 12 13 13 11 11 12 13 15 17 16 15 14 14 14 14 14 15 15 16 16 15 14 13 12 11 10 8 6 6 5 4 5 5 5 5 5 4 4 4 5 5 5 5 6 7
10 11 13 12 10 12 14 11 10 11 11 12 11 10 10 9 8 10 9 8 9 5 5 8 9 8 8 7 7 10 10 9 10 9 9 13 17 16 15 16 14 13 13 12 12 11 11 12 15 16 16 15 15 14 14 14 14 15 15 16 17 16 14 13 12 10 8 6 6 5 5 5 5 6 6 6 6 5 5 5 5 5 6 6 7 7
11 9 12 14 10 13 16 12 10 11 12 12 11 10 10 8 7 9 9 9 10 8 8 8 8 8 7 4 5 5 3 2 4 5 6 10 15 14 14 14 13 12 12 12 11 10 11 14 15 15 15 15 15 15 14 14 15 16 16 16 16 15 13 11 10 8 7 6 6 5 5 5 6 6 6 6 6 5 5 5 5 6 7 7 7 7
12 7 12 14 9 14 17 13 12 12 11 11 10 10 10 9 7 5 3 3 6 7 8 8 6 5 3 3 4 4 3 4 6 7 8 10 14 14 13 13 12 12 13 13 12 11 13 15 15 15 15 15 16 15 14 14 14 15 16 15 15 14 12 10 9 8 7 6 6 5 5 6 7 7 7 7 6 6 6 6 6 7 7 7 7 6
10 7 15 15 9 15 17 13 13 12 8 8 10 10 7 5 6 5 2 3 2 7 7 7 7 5 3 5 7 6 5 7 8 10 12 13 16 16 13 13 14 14 14 14 14 13 14 15 14 14 15 15 16 16 15 14 14 15 16 15 14 12 11 10 9 9 8 7 6 7 7 8 9 8 8 6 6 6 7 7 7 7 7 7 7 6
7 7 14 15 11 15 17 13 13 13 9 7 10 9 5 0 3 4 5 4 6 9 5 7 9 9 7 6 8 9 9 9 10 13 14 14 16 17 15 16 16 15 15 16 17 16 17 18 17 15 15 16 17 16 16 16 15 15 15 14 13 12 11 10 9 9 8 7 8 9 9 9 9 8 7 6 7 7 8 8 8 7 7 7 7 7
6 7 11 13 13 14 15 13 12 14 11 7 9 9 6 4 5 5 6 6 9 9 5 8 11 10 9 7 7 11 13 11 12 14 15 15 17 16 16 17 18 17 16 16 17 16 16 20 21 19 18 18 18 18 18 17 16 16 14 13 13 12 11 10 9 9 8 8 9 9 9 8 8 7 7 7 8 8 8 8 8 8 7 7 7 7
7 5 8 12 13 13 12 11 11 12 9 8 9 10 8 6 6 7 7 5 7 8 6 9 10 8 9 8 8 12 14 14 14 14 14 15 16 15 15 17 17 17 16 15 15 14 15 19 23 22 21 21 20 19 19 18 17 16 14 13 12 11 10 10 9 9 9 9 9 9 8 8 7 7 7 8 9 9 9 8 8 8 7 7 8 8
7 4 6 12 14 12 10 10 11 12 12 9 9 10 10 5 3 6 8 5 6 7 7 7 8 7 7 6 8 9 10 13 14 14 14 14 16 16 16 17 16 16 16 15 14 14 16 20 23 23 22 22 20 19 19 18 16 16 15 13 12 11 10 10 9 9 9 10 9 9 8 7 7 7 8 9 9 9 9 8 8 7 7 8 9 9
7 5 7 10 11 10 9 12 13 13 13 12 9 9 11 8 5 6 8 6 6 5 5 6 7 6 4 3 3 5 7 10 14 14 13 14 17 17 16 17 17 16 16 16 15 14 16 19 22 23 23 22 21 19 18 17 16 15 14 13 12 11 10 9 8 8 9 9 9 8 8 8 8 8 9 10 9 9 9 8 8 8 8 9 9 10
3 4 7 9 9 9 9 12 14 13 15 15 11 10 11 9 9 8 7 8 7 4 3 4 5 3 3 3 2 4 6 9 13 14 13 14 17 17 17 18 17 16 15 15 15 15 17 20 22 24 24 23 22 20 18 17 16 15 14 13 11 10 9 8 8 8 9 10 9 8 9 9 9 9 10 10 10 9 9 9 9 9 9 10 9 10
2 4 7 8 9 8 7 8 11 12 14 14 12 12 11 10 12 9 6 7 8 7 6 4 5 3 4 3 2 4 7 9 11 13 14 14 13 14 16 16 15 16 16 15 15 15 18 21 22 22 23 23 22 20 19 17 16 15 13 12 11 10 10 9 9 10 10 10 10 9 10 10 9 10 10 10 10 10 9 9 9 10 10 10 11 11
5 6 7 7 9 9 8 9 11 12 13 11 10 12 12 13 14 10 7 7 8 11 11 7 6 4 4 3 3 6 9 11 11 12 14 14 13 12 13 13 13 16 17 17 16 17 18 19 20 22 23 23 22 20 19 17 16 14 13 12 12 11 10 9 10 10 10 10 10 10 10 10 10 10 10 10 10 10 10 10 10 10 11 11 12 12
6 6 7 8 9 10 10 9 9 11 11 9 11 15 15 16 16 10 6 7 8 11 13 10 5 4 5 3 6 8 10 11 12 12 13 13 14 14 13 12 13 15 17 18 18 18 17 18 20 22 23 22 22 20 19 17 16 15 14 13 13 11 10 10 10 11 11 11 12 12 11 10 10 10 10 11 10 10 10 10 10 11 11 12 12 12
5 6 9 9 8 8 9 8 9 11 11 11 14 16 16 16 16 11 8 8 8 9 10 11 9 3 6 7 8 10 11 11 12 14 14 13 14 15 14 12 13 15 16 17 18 18 17 16 18 22 22 21 21 20 18 17 16 16 15 14 12 11 10 11 11 12 12 13 13 13 12 10 9 9 10 10 10 9 10 11 11 11 12 12 13 13
4 7 10 8 4 3 3 6 11 14 15 14 15 16 16 17 16 14 10 8 9 8 8 12 12 8 5 9 10 11 12 12 12 13 13 13 13 14 14 13 14 15 16 17 18 19 18 15 15 20 22 21 21 20 19 17 16 16 15 14 12 11 11 11 12 13 13 14 13 12 11 10 9 10 10 10 10 10 11 11 11 12 12 12 13 13
5 7 10 7 2 3 4 5 9 14 16 16 16 17 18 19 19 17 13 10 9 8 7 10 14 13 9 8 11 12 12 12 12 11 11 13 13 14 15 15 15 16 18 19 19 20 20 18 18 20 22 22 21 20 19 17 16 15 14 13 12 12 12 12 13 13 14 14 13 11 11 10 10 11 11 11 11 11 12 12 13 13 13 13 13 14
5 5 8 8 5 4 4 4 7 11 14 16 17 18 18 19 20 18 16 14 11 9 7 5 11 14 9 3 8 11 10 10 11 10 12 15 15 15 16 16 16 15 17 19 19 19 18 18 19 21 21 21 22 21 19 17 16 15 13 13 13 13 13 13 14 14 14 14 13 12 12 11 11 12 12 12 12 12 13 13 13 13 14 14 14 14
6 4 8 8 6 5 3 3 6 10 12 14 16 17 18 19 19 18 17 15 13 12 9 5 7 10 4 3 7 11 9 10 12 13 14 15 16 17 17 17 18 17 17 18 19 18 18 17 17 18 18 18 20 20 18 17 16 15 14 14 14 13 14 14 15 14 15 15 14 13 13 12 12 12 13 13 13 14 14 14 14 14 14 14 14 14
7 4 6 7 7 6 4 4 6 9 11 13 16 17 18 18 16 16 15 13 12 12 11 9 9 7 5 7 9 10 11 12 15 16 15 14 16 19 18 16 18 19 18 18 17 17 17 16 16 17 17 18 19 18 17 17 16 15 14 14 14 14 15 15 15 15 15 15 15 14 13 13 13 13 13 13 14 14 14 14 14 14 14 14 14 14
8 5 5 7 7 5 5 4 6 8 10 11 10 11 14 15 14 14 12 11 12 13 10 9 8 4 9 11 10 11 13 14 15 16 15 15 16 18 18 17 17 18 19 18 17 17 16 15 17 19 21 20 19 17 17 16 16 15 14 15 15 15 15 15 15 16 16 15 15 14 14 13 14 14 14 14 14 14 14 15 15 14 14 14 14 15
10 8 5 7 6 5 6 5 6 9 8 5 2 1 4 7 9 12 11 11 13 12 6 3 2 6 11 12 12 13 14 13 14 14 14 15 15 16 17 18 17 16 18 18 17 18 17 16 18 21 21 20 18 17 16 16 15 15 15 15 16 16 16 15 16 17 16 15 15 15 14 14 14 14 14 14 15 15 15 15 15 15 14 15 15 16
10 8 6 6 5 5 7 6 7 7 3 3 3 2 2 1 1 4 6 8 11 11 7 4 3 7 10 9 9 10 10 10 12 13 14 16 16 15 16 18 17 16 16 17 17 17 19 20 20 20 20 19 19 18 17 16 16 15 15 15 16 16 16 16 17 17 16 15 15 15 15 15 15 15 15 15 15 16 16 15 15 14 14 14 15 15
9 8 6 5 5 4 6 7 6 3 5 5 4 3 3 2 2 2 5 8 11 11 10 8 5 6 7 7 7 8 8 10 10 11 14 16 17 17 17 18 19 17 16 18 18 19 21 22 21 21 21 20 19 18 17 16 16 15 16 16 16 16 16 16 17 17 17 16 15 15 16 16 16 16 16 16 16 16 16 16 15 14 14 14 15 15
10 8 6 5 4 4 6 8 4 3 5 5 3 5 5 3 5 6 6 9 12 12 11 8 6 7 8 8 9 9 10 10 9 9 13 16 17 18 18 19 20 18 17 20 21 21 22 22 22 22 22 21 20 18 17 17 16 15 16 16 16 16 16 16 16 16 16 16 15 14 15 16 17 17 17 17 17 17 17 16 16 15 14 15 15 14
10 9 8 6 4 5 7 8 6 4 6 4 3 6 6 1 2 4 4 6 10 12 11 8 8 10 10 10 11 12 11 10 8 9 13 18 19 19 18 19 21 22 22 23 23 22 23 23 23 23 23 21 19 18 17 17 16 15 16 16 16 16 15 15 15 14 15 15 14 14 15 16 17 17 17 17 17 16 16 15 15 14 13 14 14 14
10 9 8 7 6 6 7 8 7 5 4 4 5 7 6 2 2 2 5 6 9 13 13 10 10 12 12 12 14 13 10 8 8 10 14 18 19 18 17 18 22 25 26 26 26 26 26 25 25 23 22 21 20 19 18 17 16 16 16 17 17 16 15 14 14 14 14 15 15 15 15 16 17 17 17 17 16 16 16 15 14 14 13 13 14 13
10 8 8 8 7 7 8 7 6 4 3 5 5 6 6 3 2 5 8 4 3 9 13 11 10 12 12 12 13 12 9 4 2 7 16 19 17 15 16 19 22 25 26 25 25 26 26 26 26 24 23 22 21 20 19 18 16 16 17 17 16 15 14 14 14 14 15 15 15 15 15 16 17 18 18 17 16 16 15 15 14 13 13 12 13 13
8 8 8 9 8 8 9 8 5 4 4 5 5 6 5 4 4 6 6 1 3 5 10 9 10 12 12 13 11 8 5 1 4 5 17 19 15 13 16 21 25 25 25 25 27 28 27 25 25 24 23 22 21 20 19 18 17 16 17 17 15 15 15 15 15 15 16 15 15 15 15 16 18 18 18 17 16 16 15 14 13 12 12 13 13 13
8 7 7 8 9 8 7 8 7 4 3 5 6 5 2 4 4 2 1 3 4 2 6 6 8 10 11 12 9 5 3 3 2 8 17 19 16 17 19 22 25 25 25 27 29 29 27 24 24 23 22 22 21 20 18 17 17 17 18 17 15 15 16 17 16 16 16 16 16 15 15 17 18 18 17 16 16 16 14 13 12 12 12 13 13 13
6 7 8 7 7 7 7 8 8 4 4 10 10 5 2 3 1 2 1 1 2 1 4 5 6 8 9 10 9 5 5 5 5 10 16 16 16 19 21 22 23 24 25 27 27 27 25 24 23 23 22 22 20 19 18 17 18 19 19 18 17 16 17 17 17 16 16 16 16 16 17 18 18 17 16 15 16 16 14 13 12 12 13 13 13 13
2 4 7 6 4 6 7 6 3 0 4 7 6 2 1 2 3 4 3 3 3 1 3 3 5 7 8 9 9 8 6 7 9 12 15 16 17 18 20 22 23 24 25 25 25 25 25 23 22 20 20 19 18 18 17 18 20 21 21 21 21 20 18 16 16 16 15 15 16 17 17 18 17 16 16 16 15 15 14 12 12 12 12 11 11 12
2 2 2 1 1 2 2 1 2 2 1 2 2 4 4 4 3 3 3 4 4 2 0 1 4 7 8 8 10 9 8 9 11 13 15 17 18 19 21 22 23 25 25 25 25 25 23 23 22 21 19 18 17 16 16 18 22 24 22 21 23 22 19 16 16 16 16 16 17 17 17 17 17 16 16 15 14 14 13 12 11 11 11 10 10 10
2 2 3 2 2 2 1 3 3 1 1 3 0 2 4 3 2 2 3 4 4 3 1 1 3 6 7 8 9 9 9 10 11 13 15 17 18 20 21 22 23 25 24 24 23 23 22 22 21 20 20 19 17 16 17 19 22 24 22 21 20 19 18 17 16 16 16 17 17 17 17 17 16 15 15 14 13 12 11 10 10 10 10 9 9 10
2 0 2 1 2 3 2 3 3 1 2 4 3 1 1 2 3 2 2 2 3 3 2 0 2 5 6 8 9 9 10 11 12 13 14 16 18 19 19 19 21 22 23 23 23 23 23 22 21 20 21 20 18 18 19 20 21 22 22 21 19 18 18 18 17 17 17 17 17 17 17 16 15 15 15 13 12 11 10 10 10 10 9 9 9 9
2 2 2 2 2 3 1 3 2 1 2 4 4 3 1 2 3 3 2 2 2 2 0 1 3 5 6 7 9 10 11 12 12 13 13 15 16 16 16 19 21 21 22 22 23 24 23 22 22 22 21 20 18 18 20 22 24 24 23 22 20 19 19 19 18 18 17 17 17 16 16 16 16 15 14 13 12 11 10 9 8 8 8 8 7 8
1 2 2 1 2 3 2 3 2 3 4 5 6 4 1 2 3 2 2 1 1 1 2 2 4 5 6 7 9 11 12 12 12 14 14 14 15 15 18 23 25 23 24 24 24 24 24 23 23 22 21 19 19 21 23 26 28 27 26 25 23 22 23 22 20 18 17 17 16 16 16 16 16 14 14 13 12 11 11 10 9 9 8 8 8 9
2 2 2 2 4 3 1 2 1 1 1 3 3 2 1 2 2 2 1 1 1 2 3 4 5 5 6 8 9 11 12 11 12 15 15 14 15 19 23 26 25 23 25 27 26 23 22 22 23 23 21 19 20 23 25 26 26 25 24 24 25 24 24 23 20 17 16 16 15 16 17 16 15 14 14 13 13 13 14 14 13 12 12 12 12 12
1 1 1 2 1 2 5 4 3 2 1 4 3 2 2 2 2 1 2 2 2 1 2 4 5 6 7 8 9 11 12 11 12 15 14 14 18 23 25 25 24 24 25 26 26 23 21 21 23 23 22 21 21 22 22 22 22 22 21 21 21 22 22 21 19 17 16 15 16 17 16 16 16 15 15 14 15 15 15 14 14 14 15 15 14 14
Wind_Direction
184 192 199 203 199 193 195 200 206 207 190 188 189 200 201 188 186 163 123 121 191 206 194 198 198 170 164 172 162 159 163 158 153 160 168 163 167 185 171 148 152 153 145 148 151 153 144 143 151 150 149 152 157 157 153 152 155 156 159 162 165 166 161 157 154 157 160 158 158 157 152 139 127 120 115 109 104 103 100 101 96 52 27 9 352 337
189 206 202 200 200 189 191 199 202 202 192 190 195 196 201 199 168 147 139 131 190 216 192 190 195 174 171 172 161 160 167 168 164 166 179 172 160 162 143 106 77 68 59 81 93 77 77 82 112 141 148 156 158 160 155 149 150 155 162 166 168 167 160 156 154 157 158 154 154 149 139 129 119 114 115 114 106 102 98 95 82 57 38 16 2 343
196 213 203 196 198 188 188 195 196 195 193 195 201 198 199 187 138 136 149 133 187 220 185 179 193 174 166 168 161 166 172 166 169 175 179 168 148 144 143 138 150 124 82 66 56 55 72 92 135 134 146 169 162 154 151 153 155 156 163 166 171 169 159 155 153 153 148 136 131 128 122 117 112 104 105 109 110 110 99 91 81 61 45 22 3 341
194 208 199 189 187 183 182 188 193 194 199 205 199 200 196 173 154 162 168 154 183 232 193 180 188 166 161 170 161 167 175 156 157 177 179 167 148 143 156 159 153 133 116 112 106 95 94 119 203 144 163 196 170 145 146 158 159 155 158 158 168 172 158 151 146 141 136 128 120 113 109 109 112 112 113 115 115 116 105 95 82 62 50 30 3 343
199 195 180 174 178 182 181 185 193 196 198 205 203 209 190 171 179 155 148 152 168 208 197 179 182 171 171 182 173 165 175 168 162 167 172 173 164 154 156 154 143 134 127 125 129 126 114 101 2 306 187 186 163 148 154 159 153 152 152 149 163 171 154 144 140 138 136 129 119 115 116 120 124 129 135 133 125 126 120 102 81 61 42 16 353 335
203 178 166 177 185 189 189 188 194 197 195 198 206 217 192 162 167 119 140 165 176 186 189 187 195 186 182 192 185 171 178 187 183 179 179 171 166 164 158 152 149 147 142 141 140 128 127 136 136 215 204 157 134 145 153 153 150 151 147 148 162 161 146 141 141 143 140 130 128 134 141 145 145 139 134 130 128 130 118 98 86 64 22 352 333 322
190 166 173 186 186 189 194 194 194 196 203 199 197 208 200 150 163 145 162 187 192 176 173 201 220 184 179 198 191 180 185 191 190 192 191 176 173 181 172 159 156 155 152 154 147 131 135 150 153 170 181 129 115 124 136 145 147 148 147 150 157 149 141 142 142 143 138 132 142 148 145 139 133 124 119 120 120 116 104 98 88 52 1 339 336 330
170 169 182 186 184 190 195 197 191 194 213 198 175 192 197 176 174 166 187 202 196 118 148 200 233 212 187 200 194 189 190 191 193 195 191 182 187 193 178 167 166 163 162 162 154 143 146 152 149 148 139 124 123 122 132 147 144 142 145 145 144 140 138 139 138 138 134 135 140 134 119 104 101 109 124 135 130 126 108 85 61 36 8 355 1 350
163 177 182 183 188 193 197 195 183 193 215 173 154 185 196 196 193 188 206 212 192 177 185 192 216 233 200 184 187 195 198 197 196 195 195 189 191 195 182 174 173 169 170 168 158 151 151 149 144 136 129 133 141 137 137 143 141 138 136 132 132 134 132 131 132 131 128 127 123 116 109 105 106 112 126 135 134 132 99 63 45 38 24 12 15 5
168 186 180 183 194 193 196 192 175 192 210 145 152 187 194 201 209 209 219 215 187 214 215 184 190 220 209 170 179 197 201 202 200 197 197 191 188 193 186 178 176 174 174 168 158 155 150 145 139 132 128 134 146 152 144 140 142 139 134 132 131 129 125 126 128 124 120 117 112 106 102 103 108 114 124 125 113 96 77 63 54 45 32 23 22 12
161 182 185 192 202 196 192 184 174 193 199 152 165 185 186 198 207 210 226 225 200 212 220 192 187 214 218 177 180 196 202 203 206 202 194 186 186 192 188 180 179 178 175 163 157 155 143 137 135 128 127 136 144 151 148 144 145 141 138 137 131 125 123 125 124 118 114 112 107 98 91 87 87 97 110 110 107 98 86 74 60 50 40 33 24 16
159 178 187 191 205 197 183 177 179 193 192 175 186 188 183 190 194 201 210 214 217 217 213 198 191 210 221 197 178 188 199 205 211 209 193 185 187 189 185 180 179 178 175 165 158 154 139 132 134 129 130 140 146 149 150 149 148 144 141 136 128 123 123 123 121 117 113 109 100 91 89 86 86 98 106 108 113 106 85 67 57 53 43 33 21 17
173 184 179 175 197 195 179 174 179 189 192 194 197 190 187 183 184 204 202 201 217 215 191 191 193 206 225 228 186 184 195 202 211 214 200 187 185 183 180 179 177 175 174 166 157 152 142 136 136 134 135 142 149 152 152 152 148 143 140 135 129 127 127 126 123 116 112 108 101 96 96 92 92 100 105 104 102 91 75 61 56 55 46 36 22 17
175 181 178 177 188 195 193 185 179 185 192 199 199 190 194 188 184 200 199 199 211 186 143 180 198 210 226 224 190 180 191 197 202 217 213 190 180 178 179 177 174 173 172 164 158 154 145 139 137 135 137 144 150 153 151 151 146 138 136 136 132 130 130 129 124 115 113 114 110 104 96 90 95 100 100 97 91 79 65 57 57 56 46 35 24 17
178 179 183 186 181 186 200 201 183 181 189 199 203 199 205 201 188 199 201 199 204 186 154 165 191 211 216 190 147 148 152 161 180 201 212 185 174 174 176 173 168 169 169 158 153 150 139 136 136 134 138 144 147 149 150 151 146 138 138 140 134 132 133 129 121 118 119 114 106 97 91 93 101 105 100 93 82 65 56 58 64 58 43 31 25 19
188 179 169 182 184 179 194 205 188 183 189 195 201 206 212 214 197 190 212 205 198 196 175 171 196 213 191 135 132 147 162 181 190 192 191 178 170 169 169 167 165 169 169 155 146 144 135 133 134 135 141 145 145 150 153 151 147 142 141 140 135 132 132 128 124 124 120 111 101 93 95 102 105 106 101 89 72 62 67 76 74 57 41 33 30 22
187 160 154 168 181 182 191 199 190 191 190 183 201 207 201 221 216 179 132 62 173 212 194 179 201 204 196 192 175 172 186 191 192 192 189 179 170 166 165 171 173 172 166 149 139 134 127 126 130 136 143 146 148 152 152 148 147 145 142 140 136 131 130 128 128 127 122 113 104 103 107 107 104 104 98 84 73 73 79 80 69 55 46 39 34 25
176 143 154 167 171 182 191 187 191 207 203 181 197 192 148 145 268 204 180 150 189 217 194 177 205 207 208 203 168 175 197 194 188 188 183 176 172 169 170 176 173 164 151 140 137 135 132 135 141 147 150 150 151 152 150 146 146 144 141 139 136 133 132 131 130 128 123 117 114 115 115 109 102 100 91 81 83 85 83 76 64 55 51 44 37 30
184 142 156 176 167 170 184 184 193 209 215 218 203 180 165 196 215 207 203 184 194 214 206 198 214 213 209 200 171 185 197 190 186 185 177 174 177 175 171 171 166 155 148 148 149 145 144 146 147 149 153 152 151 151 150 148 146 143 138 135 134 131 131 132 130 126 122 124 124 119 114 107 100 93 84 84 90 88 81 72 63 57 52 46 39 35
197 160 157 181 169 159 177 193 197 191 196 229 213 187 197 219 210 201 205 200 197 208 214 205 207 213 213 206 195 196 194 186 181 180 178 176 175 174 169 170 166 157 155 162 161 152 149 149 147 149 154 153 150 150 150 151 148 143 138 135 133 131 130 130 127 124 122 123 124 118 113 107 98 90 86 90 93 87 76 69 65 61 55 49 44 41
191 193 156 176 173 166 180 197 201 185 179 203 206 190 194 205 219 201 198 210 215 208 208 205 208 212 204 204 217 210 189 180 177 175 176 172 169 170 172 171 166 160 162 164 162 157 151 147 145 148 151 148 145 146 146 146 145 141 139 137 136 133 131 128 125 123 122 121 120 117 110 99 95 97 97 95 92 84 76 69 66 62 58 54 51 48
191 199 159 166 176 184 187 190 200 195 184 193 199 192 193 192 198 197 191 204 227 224 212 213 221 211 167 156 216 206 174 173 176 173 172 171 170 171 174 172 166 163 166 163 160 156 146 143 144 146 148 144 140 142 142 142 144 143 140 139 138 137 133 130 128 125 124 122 117 112 103 94 99 107 103 96 89 82 77 71 66 64 63 61 57 53
193 201 169 166 181 191 175 179 200 199 188 196 203 199 197 194 198 202 193 191 204 224 219 225 236 206 106 94 144 176 169 170 173 170 169 173 174 172 172 173 168 162 161 158 156 150 142 142 145 146 146 144 143 146 147 148 149 145 142 141 140 138 134 130 128 124 122 121 115 108 103 101 103 104 100 93 87 83 78 74 69 67 68 65 59 54
153 201 180 163 174 181 152 168 202 203 195 201 206 205 201 194 198 212 214 190 193 205 197 208 226 184 98 86 142 176 170 166 172 171 168 171 174 172 169 168 164 156 151 148 145 143 142 143 145 147 148 147 146 149 151 151 149 144 142 142 138 135 131 127 125 122 118 116 114 111 106 102 100 100 98 92 86 83 79 76 73 70 68 65 59 55
173 198 188 165 168 176 169 181 200 202 203 206 204 203 202 197 197 209 218 194 195 207 203 212 223 172 103 86 149 174 172 166 171 172 166 166 165 164 162 159 158 154 150 146 143 145 146 146 148 152 152 149 148 151 152 149 146 144 143 140 137 135 131 128 127 124 119 115 115 114 105 100 100 100 97 90 85 83 79 78 76 72 67 63 60 57
182 199 194 184 179 182 189 193 193 193 198 205 204 201 200 199 195 194 201 197 200 205 204 217 223 135 109 128 157 169 173 168 169 168 165 162 158 155 155 154 157 157 153 150 148 149 150 151 153 154 152 151 151 153 152 148 145 144 142 140 139 137 131 130 129 125 121 120 119 115 106 102 104 100 94 90 87 84 81 80 77 73 67 63 62 59
188 203 205 211 203 195 201 194 177 179 187 196 201 199 197 199 196 194 203 208 205 202 202 215 225 177 134 155 166 172 175 174 174 171 166 161 156 152 150 152 155 156 153 149 150 152 152 152 153 153 153 153 152 152 150 148 148 145 142 141 140 136 131 129 127 123 122 122 120 114 107 104 102 99 95 92 90 87 85 82 77 74 70 66 64 63
193 196 199 219 222 183 172 157 164 178 186 190 193 193 195 197 198 202 212 214 204 202 205 205 218 233 180 158 169 179 179 179 181 180 171 161 157 152 147 145 148 150 149 148 151 154 152 149 151 154 156 155 152 151 149 148 147 144 143 143 138 133 130 128 125 122 121 121 116 110 106 104 102 100 97 95 94 91 87 83 79 75 72 70 69 69
207 190 186 206 196 82 78 121 168 187 190 191 192 192 194 197 200 203 211 216 207 212 216 190 197 224 225 182 175 177 179 182 181 180 169 153 150 149 146 144 144 147 151 154 158 159 154 153 156 157 156 154 151 150 147 144 143 143 143 140 134 130 128 126 124 122 121 118 111 108 108 107 106 103 100 99 97 93 88 84 81 78 76 76 77 76
222 177 167 189 178 108 84 128 178 196 194 196 199 196 194 198 201 202 207 212 211 219 235 200 190 212 232 212 169 162 166 175 170 166 165 156 151 149 149 149 148 151 158 162 164 162 156 155 157 154 150 150 150 148 144 143 145 145 141 135 131 128 126 126 125 123 122 117 111 112 114 112 109 105 102 101 99 95 91 88 84 83 83 84 83 81
218 159 151 183 180 142 124 140 178 197 198 199 201 198 197 198 200 203 206 208 210 217 229 237 217 211 198 99 139 147 152 167 168 166 167 164 158 154 155 157 157 160 165 165 163 159 154 151 149 144 141 144 147 146 144 144 142 139 135 132 128 126 125 125 124 123 120 116 114 118 119 115 110 106 103 103 100 97 94 92 90 91 92 89 85 83
207 179 158 196 201 167 155 158 168 185 195 201 204 201 199 199 199 203 206 203 205 212 213 221 234 217 157 134 143 148 158 171 175 175 171 169 165 162 161 163 164 164 164 163 160 153 148 147 142 138 138 143 149 149 147 144 140 136 136 134 129 127 126 124 123 122 118 115 118 122 121 117 112 108 106 105 102 99 98 98 98 97 94 88 84 83
197 197 180 201 206 166 159 172 159 167 188 200 204 201 201 203 201 199 200 197 204 213 212 215 226 184 145 151 153 161 174 180 183 183 175 169 169 169 164 162 164 162 157 156 155 150 148 149 146 144 147 150 153 154 151 148 145 143 140 135 132 129 128 126 124 122 118 117 120 122 120 119 114 111 109 106 105 105 104 103 101 97 92 88 87 86
191 204 197 195 201 170 163 174 167 175 189 185 152 174 202 204 200 197 198 198 205 214 223 238 208 143 148 162 169 175 183 185 185 183 173 168 169 169 165 161 161 158 153 153 156 156 157 155 148 146 150 153 153 152 151 149 145 141 136 134 132 130 129 129 125 123 121 121 123 123 121 119 116 113 112 110 109 109 108 104 100 97 94 92 91 88
186 203 195 195 212 181 164 181 186 186 181 112 100 77 59 63 205 216 219 211 207 211 220 232 202 162 163 170 173 175 177 175 174 172 171 171 167 163 162 162 160 158 159 161 160 158 158 157 152 150 152 153 152 150 150 146 141 137 134 132 131 129 130 129 126 126 127 127 127 125 122 120 119 117 117 117 113 109 107 103 100 99 98 96 94 90
185 197 191 199 212 177 175 199 197 145 97 102 117 126 111 109 158 200 241 225 210 209 213 213 199 172 165 155 151 159 158 159 164 167 171 174 170 164 164 166 166 165 165 165 161 158 158 157 156 155 154 153 151 149 148 146 142 137 133 131 131 131 132 130 127 128 131 131 130 128 125 123 122 120 120 119 115 110 107 104 102 102 101 99 96 92
191 194 191 194 205 201 198 198 186 126 136 135 130 162 168 172 175 186 228 226 205 202 206 201 179 162 155 142 140 143 144 150 162 172 177 179 176 172 170 169 169 167 164 163 161 157 156 155 155 155 154 152 151 150 148 147 143 136 133 133 133 133 132 128 127 129 131 132 130 126 125 124 122 120 120 117 114 111 109 107 105 104 104 102 98 95
202 202 198 191 196 220 215 200 195 198 179 143 98 147 163 164 160 184 243 225 191 186 192 192 175 163 154 144 141 140 142 155 174 184 184 184 182 181 178 173 170 167 163 161 158 154 154 156 156 156 154 151 152 152 150 148 143 136 135 136 136 135 132 125 124 128 128 128 127 124 124 124 121 120 118 116 115 114 112 110 108 107 107 104 101 98
212 209 208 205 196 205 219 212 204 199 163 105 101 137 153 137 106 172 229 214 179 172 178 183 175 166 159 150 149 152 160 177 195 193 186 185 184 181 178 172 167 166 163 159 157 156 156 156 156 155 155 154 153 153 151 147 142 136 136 138 138 135 130 123 123 126 124 122 123 122 121 122 120 119 118 116 116 116 114 112 111 110 110 106 103 101
210 206 209 214 206 203 218 220 210 193 122 86 100 132 145 139 148 195 203 197 155 165 172 175 173 167 160 153 159 173 181 192 230 177 175 181 181 172 170 168 164 161 157 153 154 155 154 153 154 155 156 155 152 151 150 146 141 137 139 141 135 127 125 124 123 124 121 120 122 120 119 120 119 118 119 118 118 117 115 114 113 113 112 108 105 104
199 202 207 214 210 205 215 220 215 188 122 102 119 133 144 174 207 202 191 27 6 171 169 170 173 167 160 160 173 190 186 51 14 142 165 172 167 155 160 163 159 155 149 145 147 151 151 153 155 155 154 153 151 150 148 146 141 138 140 140 130 122 126 128 125 124 122 120 121 120 119 119 118 118 119 120 120 118 115 114 115 114 113 110 108 107
188 193 204 215 213 208 212 217 219 204 125 124 129 117 158 212 202 178 170 344 331 194 163 167 173 165 162 170 181 184 141 104 80 148 160 164 160 157 160 158 153 149 145 144 147 150 150 151 152 152 151 151 151 149 149 147 142 137 136 133 125 123 129 131 128 126 124 122 122 123 121 120 119 119 121 122 122 119 115 115 116 115 114 114 112 109
181 189 197 204 208 208 207 211 220 219 145 146 146 138 237 226 136 36 6 350 339 227 166 167 171 166 167 177 183 171 138 136 144 149 154 157 160 163 162 157 152 146 143 144 147 148 149 149 150 150 147 145 147 149 150 146 139 135 133 128 124 126 131 134 133 129 125 125 126 125 124 122 121 121 123 125 123 120 118 118 119 118 117 117 115 112
152 207 207 193 192 211 213 206 214 66 127 149 150 126 106 105 55 10 2 40 29 21 175 174 174 173 177 183 182 174 159 155 153 152 155 160 164 165 161 155 150 146 145 146 148 151 152 148 144 143 139 138 142 146 147 145 138 135 135 135 137 137 133 133 134 130 128 129 128 127 126 124 124 125 126 126 124 121 121 123 123 122 119 118 117 113
59 359 258 222 136 212 226 94 39 21 115 147 28 33 57 71 60 16 355 11 27 43 173 201 178 177 183 184 179 174 168 161 157 157 161 163 163 162 157 152 149 148 149 150 153 155 152 143 139 137 134 137 143 144 145 145 140 136 136 140 144 142 136 134 136 133 132 133 130 129 128 126 126 128 127 127 126 124 126 129 126 123 121 118 115 112
55 13 296 306 88 112 95 80 58 13 167 179 217 27 35 37 49 29 349 356 19 22 350 238 181 180 182 179 179 181 176 167 162 163 166 165 162 158 154 150 148 148 146 145 148 149 142 134 135 134 131 137 143 143 145 146 142 139 139 141 143 141 138 139 138 133 133 133 131 130 130 128 129 129 127 128 127 125 128 129 125 120 119 117 112 109
117 241 281 282 149 185 181 102 75 50 172 194 216 241 56 70 59 29 343 347 357 345 336 318 188 183 178 182 188 186 176 170 167 166 167 167 164 159 152 146 145 144 143 142 142 141 135 132 135 135 134 140 146 146 145 144 142 140 140 141 142 139 136 137 135 133 134 133 131 132 132 131 132 132 130 129 127 127 128 125 122 119 115 113 113 111
129 194 239 219 184 201 155 89 96 169 189 203 219 225 182 90 63 43 11 344 324 303 318 146 179 177 178 189 191 182 176 176 172 167 168 168 165 158 150 144 142 142 144 145 143 141 138 138 140 139 139 141 143 144 143 144 145 146 143 141 141 139 137 137 136 135 134 133 132 134 134 134 136 135 133 131 127 123 121 118 118 116 104 98 101 104
129 185 196 200 209 207 156 123 164 198 183 183 200 215 242 27 28 26 21 347 258 195 153 157 174 179 183 188 186 180 178 178 172 166 166 167 164 159 154 151 149 147 147 147 147 148 146 145 143 140 140 141 141 143 147 150 154 155 152 148 147 147 146 144 139 135 135 134 133 134 135 137 139 137 135 133 124 115 110 108 109 107 97 95 101 102
211 187 150 211 229 216 112 69 12 267 160 135 158 186 100 43 357 353 27 51 159 150 152 158 166 179 184 186 187 181 173 171 173 170 166 166 165 162 158 155 152 149 148 149 150 151 148 144 141 138 138 140 142 145 148 151 153 155 155 154 153 154 151 146 140 138 139 138 138 138 139 140 141 139 137 134 126 119 113 109 108 107 103 104 110 112
287 358 15 286 252 66 43 25 358 316 28 72 81 86 71 51 4 9 41 40 47 102 163 172 174 181 182 182 187 179 163 161 172 172 167 167 167 165 161 154 148 148 151 151 148 145 139 137 138 138 138 141 144 144 145 146 148 151 154 154 154 155 153 149 145 145 146 145 145 145 144 143 143 142 140 135 131 127 121 113 109 106 101 100 104 106